Location: Luxembourg
(49.6000°N, 6.1500°W)
Time: 03:07:34
(UTC+01:00)

Envisat - Visible Passes

Search period start: 18 January 2018 00:00
Search period end: 28 January 2018 00:00
Orbit: 764 x 766 km, 98.2° (Epoch: 17 January)

Date Brightness Start Highest point End Pass type
(mag) Time Alt. Az. Time Alt. Az. Time Alt. Az.
18 Jan 4.3 19:22:36 19° ENE 19:22:58 19° ENE 19:26:30 10° NNE visible
18 Jan 3.6 21:02:48 49° NNW 21:02:48 49° NNW 21:06:33 10° NNW visible
18 Jan 6.1 22:42:59 10° WNW 22:42:59 10° WNW 22:42:59 10° WNW visible
19 Jan 4.8 18:45:54 10° ENE 18:46:48 10° NE 18:47:44 10° NE visible
19 Jan 3.2 20:25:24 51° NE 20:25:24 51° NE 20:29:44 10° N visible
19 Jan 5.3 22:05:36 21° WNW 22:05:36 21° WNW 22:08:11 10° NW visible
20 Jan 6.0 08:25:54 10° ENE 08:28:24 14° E 08:30:53 10° ESE visible
20 Jan 3.8 19:48:00 29° ENE 19:48:16 29° ENE 19:52:37 10° N visible
20 Jan 4.1 21:28:12 40° WNW 21:28:12 40° WNW 21:32:01 10° NNW visible
21 Jan 4.5 19:10:36 15° ENE 19:11:59 16° NE 19:15:01 10° NNE visible
21 Jan 3.0 20:50:47 74° N 20:50:47 74° N 20:55:26 10° NNW visible
21 Jan 5.8 22:30:59 14° WNW 22:30:59 14° WNW 22:32:46 10° NW visible
22 Jan 3.2 20:13:23 44° ENE 20:13:41 45° ENE 20:18:31 10° N visible
22 Jan 4.8 21:53:34 28° W 21:53:34 28° W 21:57:17 10° NW visible
23 Jan 6.3 08:15:56 10° ENE 08:17:06 11° E 08:18:15 10° E visible
23 Jan 4.0 19:35:58 22° E 19:37:15 24° ENE 19:41:18 10° N visible
23 Jan 3.5 21:16:09 57° W 21:16:09 57° W 21:20:58 10° NNW visible
24 Jan 4.6 18:58:36 10° E 19:01:01 14° NE 19:03:27 10° NNE visible
24 Jan 2.8 20:38:44 67° ESE 20:39:11 73° ENE 20:44:17 10° N visible
24 Jan 5.5 22:18:54 18° W 22:18:54 18° W 22:22:10 10° NW visible
25 Jan 3.5 20:01:17 32° E 20:02:37 37° ENE 20:07:17 10° N visible
25 Jan 4.4 21:41:28 35° W 21:41:40 35° W 21:46:19 10° NNW visible
26 Jan 4.2 19:23:51 15° E 19:26:15 21° ENE 19:29:56 10° NNE visible
26 Jan 3.1 21:04:01 60° SSW 21:04:46 71° WSW 21:09:53 10° NNW visible
26 Jan 6.0 22:44:12 10° W 22:44:44 10° W 22:45:34 10° WNW visible
27 Jan 4.8 18:48:33 10° ENE 18:50:04 11° NE 18:51:35 10° NNE visible
27 Jan 2.9 20:26:34 42° SE 20:28:05 59° ENE 20:33:05 10° N visible
27 Jan 5.2 22:06:45 21° WSW 22:07:30 22° W 22:11:24 10° NW visible
